User: anonymous   Login
Location: ???????
(55.4362°N, 38.1183°E)
Time: 17:31:58
(UTC+00:00)
Language:

STARS - Orbit

View from above orbital plane
View from above orbital plane
View from above satellite
View from above satellite

Ground track
Ground track

The orbit data is extracted from the following two-line orbital elements,

1 33498U 09002G   21336.94390815  .00000518  00000-0  76652-4 0  9996
2 33498  98.1899 220.4035 0011135 158.0227 202.1463 14.79502805692371
Epoch (UTC): 02 December 2021 22:39:13
Eccentricity: 0.0011135
inclination: 98.1899°
perigee height: 623 km
apogee height: 639 km
right ascension of ascending node: 220.4035°
argument of perigee: 158.0227°
revolutions per day: 14.79502805
mean anomaly at epoch: 202.1463°
orbit number at epoch: 69237

The dashed part of the orbit path shows where the satellite is in the earth's shadow,  

DLR